Weather History for Marshfield, MA

Change the Weather History Date:

Friday, February 8, 2013

  Actual Average (KPYM) Record (KPYM)
Temperature  
Mean Temperature 32 °F -  
Max Temperature 33 °F 35 °F 55 °F (1965)
Min Temperature 32 °F 15 °F -5 °F (1967)
Degree Days  
Heating Degree Days 32    
Moisture  
Dew Point 30 °F    
Average Humidity 88    
Maximum Humidity 100    
Minimum Humidity 69    
Precipitation  
Precipitation 0.24 in - - ()
Sea Level Pressure  
Sea Level Pressure 30.15 in    
Wind  
Wind Speed 15 mph (ENE)    
Max Wind Speed 31 mph    
Max Gust Speed 45 mph    
Visibility 5 miles    
Events Rain , Snow    
Averages and records for this station are not official NWS values.
T = Trace of Precipitation, MM = Missing Value Source: NWS Daily Summary

Daily Weather History Graph

Daily Weather History Graph

Search for Another Location

Airport:

Trip Planner

Search our weather history database for the weather conditions in past years. The results will help you decide how hot, cold, wet, or windy it might be!

Date:

Astronomy

Feb. 08, 2013 Rise Set
Actual Time 6:47 AM EST 5:06 PM EST
Civil Twilight 6:18 AM EST 5:35 PM EST
Nautical Twilight 5:45 AM EST 6:08 PM EST
Astronomical Twilight 5:12 AM EST 6:41 PM EST
Moon 5:14 AM EST (2/8) 3:35 PM EST (2/8)
Length of Visible Light 11h 17m
Length of Day
10h 19m
Waning Crescent, 3% of the Moon is Illuminated
Feb 8
Waning Crescent
Feb 10
New
Feb 17
First Quarter
Feb 25
Full
Mar 4
Last Quarter

Hourly Weather History & Observations

Time (EST) Temp. Windchill Dew Point Humidity Pressure Visibility Wind Dir Wind Speed Gust Speed Precip Events Conditions
12:15 AM 32.0 °F 26.4 °F 24.8 °F 75% 30.49 in 10.0 mi ESE 5.8 mph - N/A   Overcast
12:35 AM 32.0 °F 24.2 °F 23.0 °F 69% 30.49 in 10.0 mi East 9.2 mph - N/A   Overcast
12:55 AM 32.0 °F 24.8 °F 23.0 °F 69% 30.47 in 10.0 mi East 8.1 mph - N/A   Overcast
1:15 AM 32.0 °F 23.6 °F 24.8 °F 75% 30.47 in 10.0 mi East 10.4 mph - N/A   Overcast
1:35 AM 32.0 °F 24.2 °F 24.8 °F 75% 30.46 in 10.0 mi East 9.2 mph - N/A   Overcast
1:55 AM 32.0 °F 24.2 °F 24.8 °F 75% 30.45 in 10.0 mi East 9.2 mph - N/A   Overcast
2:15 AM 32.0 °F 24.8 °F 24.8 °F 75% 30.45 in 10.0 mi East 8.1 mph - N/A   Overcast
2:35 AM 32.0 °F 23.0 °F 26.6 °F 80% 30.44 in 10.0 mi East 11.5 mph - N/A   Overcast
2:55 AM 32.0 °F 23.0 °F 26.6 °F 80% 30.42 in 10.0 mi East 11.5 mph - N/A   Overcast
3:15 AM 32.0 °F 22.5 °F 26.6 °F 80% 30.42 in 10.0 mi East 12.7 mph - N/A   Overcast
3:35 AM 32.0 °F 21.6 °F 26.6 °F 80% 30.40 in 10.0 mi East 15.0 mph 20.7 mph N/A   Overcast
3:55 AM 32.0 °F 21.6 °F 26.6 °F 80% 30.39 in 10.0 mi East 15.0 mph 23.0 mph N/A   Overcast
4:35 AM 32.0 °F 22.1 °F 26.6 °F 80% 30.39 in 10.0 mi East 13.8 mph 21.9 mph N/A   Overcast
4:55 AM 32.0 °F 24.2 °F 26.6 °F 80% 30.38 in 10.0 mi East 9.2 mph 20.7 mph N/A   Overcast
5:15 AM 32.0 °F 22.1 °F 26.6 °F 80% 30.38 in 10.0 mi East 13.8 mph 25.3 mph N/A   Overcast
5:35 AM 32.0 °F 20.8 °F 26.6 °F 80% 30.37 in 10.0 mi East 17.3 mph 21.9 mph N/A   Overcast
5:55 AM 32.0 °F 22.1 °F 26.6 °F 80% 30.36 in 10.0 mi East 13.8 mph 25.3 mph N/A   Overcast
6:15 AM 32.0 °F 22.5 °F 26.6 °F 80% 30.36 in 10.0 mi East 12.7 mph 24.2 mph N/A   Overcast
6:35 AM 32.0 °F 21.2 °F 26.6 °F 80% 30.35 in 10.0 mi East 16.1 mph 21.9 mph N/A   Overcast
6:55 AM 32.0 °F 22.5 °F 26.6 °F 80% 30.35 in 10.0 mi East 12.7 mph 23.0 mph N/A   Overcast
7:15 AM 33.8 °F 23.9 °F 26.6 °F 75% 30.36 in 10.0 mi East 15.0 mph 21.9 mph N/A   Overcast
7:35 AM 33.8 °F 23.5 °F 26.6 °F 75% 30.35 in 10.0 mi East 16.1 mph 23.0 mph N/A   Overcast
7:55 AM 33.8 °F 23.5 °F 26.6 °F 75% 30.34 in 10.0 mi East 16.1 mph 23.0 mph N/A   Overcast
8:15 AM 33.8 °F 24.8 °F 26.6 °F 75% 30.33 in 10.0 mi East 12.7 mph 24.2 mph N/A   Overcast
8:35 AM 33.8 °F 22.8 °F 28.4 °F 81% 30.33 in 10.0 mi East 18.4 mph 23.0 mph N/A   Overcast
8:55 AM 33.8 °F 24.8 °F 28.4 °F 81% 30.31 in 10.0 mi East 12.7 mph 24.2 mph N/A   Overcast
9:15 AM 33.8 °F 23.9 °F 28.4 °F 81% 30.30 in 10.0 mi East 15.0 mph 24.2 mph N/A   Overcast
9:35 AM 33.8 °F 22.5 °F 30.2 °F 87% 30.30 in 3.0 mi East 19.6 mph 28.8 mph N/A Rain Light Rain
9:55 AM 33.8 °F 23.9 °F 30.2 °F 87% 30.29 in 3.0 mi East 15.0 mph 25.3 mph N/A Snow Light Snow
10:15 AM 33.8 °F 23.9 °F 32.0 °F 93% 30.28 in 2.0 mi East 15.0 mph 25.3 mph N/A   Overcast
10:35 AM 33.8 °F 22.8 °F 32.0 °F 93% 30.26 in 1.8 mi East 18.4 mph 25.3 mph N/A Snow Light Snow
10:55 AM 33.8 °F 24.8 °F 32.0 °F 93% 30.24 in 1.5 mi East 12.7 mph 24.2 mph N/A Snow Light Snow
11:15 AM 33.8 °F 22.8 °F 32.0 °F 93% 30.22 in 1.2 mi East 18.4 mph 24.2 mph N/A Snow Light Snow
11:35 AM 33.8 °F 23.2 °F 32.0 °F 93% 30.20 in 1.5 mi East 17.3 mph 26.5 mph N/A Snow Light Snow
11:55 AM 33.8 °F 22.8 °F 32.0 °F 93% 30.18 in 1.2 mi East 18.4 mph 25.3 mph N/A Snow Light Snow
12:15 PM 33.8 °F 22.2 °F 32.0 °F 93% 30.16 in 1.0 mi East 20.7 mph 29.9 mph N/A Snow Light Snow
12:35 PM 33.8 °F 22.5 °F 32.0 °F 93% 30.15 in 1.0 mi ENE 19.6 mph 27.6 mph N/A Snow Light Snow
12:55 PM 33.8 °F 23.9 °F 32.0 °F 93% 30.14 in 1.0 mi East 15.0 mph 25.3 mph 0.01 in Snow Light Snow
1:15 PM 33.8 °F 23.2 °F 32.0 °F 93% 30.12 in 0.8 mi ENE 17.3 mph 24.2 mph 0.01 in Snow Light Snow
1:35 PM 33.8 °F 22.5 °F 32.0 °F 93% 30.09 in 1.0 mi ENE 19.6 mph 27.6 mph 0.01 in Snow Light Snow
1:55 PM 33.8 °F 22.5 °F 32.0 °F 93% 30.07 in 1.0 mi ENE 19.6 mph 29.9 mph 0.02 in Snow Light Snow
2:15 PM 33.8 °F 21.0 °F 32.0 °F 93% 30.05 in 1.0 mi ENE 25.3 mph 38.0 mph 0.01 in   Overcast
2:35 PM 33.8 °F 21.6 °F 32.0 °F 93% 30.04 in 1.0 mi ENE 23.0 mph 34.5 mph 0.02 in   Overcast
2:55 PM 33.8 °F 21.3 °F 33.8 °F 100% 30.03 in 1.2 mi ENE 24.2 mph 34.5 mph 0.03 in Snow Light Snow
3:15 PM 33.8 °F 21.3 °F 33.8 °F 100% 30.01 in 1.0 mi ENE 24.2 mph 32.2 mph 0.01 in Snow Light Snow
3:35 PM 33.8 °F 20.3 °F 33.8 °F 100% 29.97 in 1.0 mi NE 28.8 mph 44.9 mph 0.02 in   Overcast
3:55 PM 33.8 °F 20.5 °F 33.8 °F 100% 29.96 in 0.8 mi NE 27.6 mph 41.4 mph 0.03 in   Overcast
4:15 PM 33.8 °F 21.0 °F 33.8 °F 100% 29.93 in 1.0 mi NE 25.3 mph 41.4 mph 0.01 in   Overcast
4:35 PM 33.8 °F 20.8 °F 33.8 °F 100% 29.92 in 0.8 mi NE 26.5 mph 42.6 mph 0.01 in Snow Light Snow
4:55 PM 33.8 °F 20.3 °F 32.0 °F 93% 29.90 in 0.5 mi NE 28.8 mph 38.0 mph 0.02 in Snow Light Snow
5:15 PM 33.8 °F 19.9 °F 32.0 °F 93% 29.89 in 0.8 mi NE 31.1 mph 42.6 mph 0.01 in Snow Light Snow
5:35 PM 33.8 °F 20.1 °F 32.0 °F 93% 29.88 in 0.5 mi NE 29.9 mph 40.3 mph 0.02 in Snow Light Snow
5:55 PM 33.8 °F 21.3 °F 32.0 °F 93% 29.87 in 0.8 mi NE 24.2 mph 38.0 mph 0.03 in Snow Light Snow
6:15 PM 33.8 °F 21.3 °F 33.8 °F 100% 29.85 in 0.8 mi NE 24.2 mph 35.7 mph 0.01 in Snow Light Snow
6:35 PM 33.8 °F 21.3 °F 33.8 °F 100% 29.83 in 0.8 mi NE 24.2 mph 40.3 mph 0.02 in Snow Light Snow
6:55 PM 33.8 °F 20.1 °F 33.8 °F 100% 29.80 in 0.8 mi NE 29.9 mph 42.6 mph 0.04 in Snow Light Snow
7:15 PM 33.8 °F 21.3 °F 32.0 °F 93% 29.77 in 0.5 mi NNE 24.2 mph 36.8 mph 0.01 in   Overcast
7:35 PM 33.8 °F 21.3 °F 32.0 °F 93% 29.75 in 0.5 mi NNE 24.2 mph 39.1 mph 0.02 in   Overcast
7:55 PM 33.8 °F 22.2 °F 32.0 °F 93% 29.74 in 0.2 mi NNE 20.7 mph 35.7 mph 0.02 in   Overcast
8:55 PM 33.8 °F 21.0 °F 32.0 °F 93% 29.63 in 0.2 mi NNE 25.3 mph 35.7 mph 0.02 in   Overcast
9:15 PM 33.8 °F 21.6 °F 32.0 °F 93% 29.64 in 0.2 mi NNE 23.0 mph 42.6 mph N/A   Overcast
9:35 PM 33.8 °F 21.0 °F 32.0 °F 93% 29.64 in 0.2 mi NNE 25.3 mph 35.7 mph 0.01 in   Overcast
9:55 PM 32.0 °F 19.8 °F 32.0 °F 100% 29.63 in 0.2 mi NNE 20.7 mph 35.7 mph 0.01 in   Overcast
10:15 PM 32.0 °F 19.5 °F 32.0 °F 100% 29.59 in 0.2 mi North 21.9 mph 36.8 mph 0.01 in   Overcast
10:35 PM - - - N/A% - - North - - 0.01 in   Unknown
10:55 PM - - - N/A% - - North - - 0.01 in   Unknown
11:15 PM - - - N/A% - - North - - N/A   Unknown
11:35 PM - - - N/A% - - North - - N/A   Unknown
11:55 PM - - - N/A% - - North - - N/A   Unknown